Temp
60 60 60 60 60 59 59 59 59 59 59 58 58 58 58 58 60 61 62 62 62 62 62 62 62 62 61 61 61 61 61 61 60 60 60 59 59 59 59 59 59 58 58 58 57 57 58 58 58 58 58 57 56 55 54 54 53 52 52 52 51 50 48 49 49 48 48 47 48
60 60 60 60 60 59 59 59 59 59 58 58 58 58 58 58 58 60 61 62 62 62 62 62 62 61 61 61 61 61 61 60 60 60 60 59 59 59 59 59 59 58 58 58 57 58 58 58 58 58 57 56 55 55 54 54 54 53 52 50 50 49 48 49 49 48 48 47 47
60 60 60 60 59 59 59 59 58 58 58 58 58 58 58 58 58 59 61 62 62 61 61 62 62 61 61 60 61 61 61 60 60 60 60 59 59 59 59 59 58 58 58 58 58 58 58 58 59 58 58 56 56 55 54 53 53 53 52 50 50 50 50 50 49 48 48 48 47
60 60 60 60 59 59 59 59 58 58 58 58 58 58 58 58 58 59 61 62 60 60 61 62 62 61 61 61 61 61 61 60 60 60 60 59 59 59 59 59 58 58 58 58 58 58 58 58 59 59 58 56 56 56 55 54 53 53 53 51 51 50 50 50 49 48 48 48 47
60 60 60 60 59 59 59 59 58 58 58 58 58 58 58 58 58 59 60 62 62 62 62 62 62 62 61 61 61 60 60 60 60 60 60 59 59 59 59 58 58 58 58 58 58 58 58 58 59 58 58 57 57 57 56 54 53 53 53 52 51 51 51 50 49 48 48 48 48
60 60 60 60 60 60 59 59 59 58 58 58 58 58 57 58 58 58 60 62 62 61 61 61 62 62 61 61 60 60 60 60 60 60 60 59 59 59 58 58 58 58 58 58 58 57 58 58 58 58 57 57 57 56 55 54 54 54 53 52 51 51 51 51 50 49 49 49 48
61 61 60 60 60 60 59 59 59 59 59 58 58 58 57 57 58 59 60 62 61 61 61 62 62 61 61 60 60 60 60 60 60 60 60 59 59 59 58 58 58 57 58 57 57 57 58 58 58 58 57 57 57 55 54 55 55 54 54 52 52 52 52 51 51 50 50 49 48
61 61 61 60 60 60 59 59 59 59 59 58 58 58 58 58 58 59 60 62 61 61 62 62 62 61 61 61 61 60 60 60 60 60 59 59 59 58 58 58 57 57 57 57 57 57 58 58 58 57 57 57 56 55 54 54 54 54 53 52 52 52 52 53 52 51 50 50 49
60 60 60 60 60 60 60 59 59 59 59 58 58 58 58 58 59 60 61 61 61 62 62 62 61 61 61 61 61 61 60 60 60 59 59 59 59 58 58 58 57 57 57 57 57 57 57 58 58 57 57 56 56 55 54 54 54 54 53 52 52 51 52 53 52 51 50 50 50
60 60 60 60 60 60 60 60 60 59 59 59 59 58 58 58 59 60 61 62 62 62 62 62 61 61 61 61 61 61 61 61 60 60 59 59 59 58 58 58 57 57 57 57 57 57 57 58 57 57 56 56 55 54 53 53 53 53 53 53 52 51 51 52 51 51 51 51 50
60 60 60 60 60 60 60 60 59 59 59 59 59 58 58 58 60 61 62 62 62 61 61 62 62 61 61 61 61 61 61 61 61 60 59 59 59 59 59 58 58 57 57 57 57 57 57 58 57 55 54 55 54 53 53 53 53 53 52 52 51 51 51 51 51 51 51 51 50
60 60 60 60 60 60 60 60 59 59 59 59 59 59 59 59 60 62 62 62 61 61 61 62 62 62 62 62 62 62 62 61 61 60 60 59 59 59 59 58 58 57 57 57 57 58 58 57 56 55 53 53 54 54 53 52 52 52 52 51 50 51 51 51 52 52 52 51 51
60 60 60 60 60 60 60 59 59 59 59 59 59 59 60 60 61 62 62 61 61 61 62 62 62 62 62 62 62 62 62 61 61 60 60 59 59 59 58 58 58 57 57 57 58 58 58 57 55 54 53 53 53 53 53 52 52 52 52 51 50 51 51 51 52 52 52 51 51
60 60 60 59 59 59 59 59 59 59 59 59 59 60 60 61 61 62 62 62 62 62 62 62 62 63 63 62 62 62 62 61 61 60 60 59 59 59 58 58 58 58 58 58 58 57 57 57 55 54 54 53 53 52 52 52 53 52 52 51 51 51 51 51 52 52 52 51 51
60 59 59 59 59 59 59 59 59 59 59 59 59 60 61 61 61 62 62 62 62 62 62 62 62 63 63 63 62 62 62 61 61 60 59 59 58 58 58 58 58 58 58 58 58 57 57 56 55 55 54 53 53 52 52 53 53 53 52 52 51 51 51 51 52 52 52 51 51
58 59 59 59 59 59 59 59 59 59 59 60 60 60 61 61 62 62 62 62 62 62 62 62 62 63 63 62 62 62 62 61 61 60 59 59 58 58 58 58 58 58 58 57 57 57 57 56 56 55 55 54 53 53 52 53 53 53 52 52 52 52 52 52 52 52 52 52 51
55 57 58 59 59 59 59 59 59 60 60 59 60 60 61 61 62 61 61 61 62 62 61 61 62 62 62 62 62 62 62 61 61 60 60 59 58 58 58 58 58 58 58 57 57 57 56 56 56 55 55 54 53 53 53 53 53 53 52 52 52 52 52 52 52 52 52 52 51
52 54 56 58 58 59 59 59 59 59 59 59 59 60 60 61 61 61 61 61 61 61 61 61 61 62 61 61 62 62 62 61 61 60 60 59 59 59 58 58 58 58 58 58 58 57 56 56 55 55 54 54 54 53 53 53 53 52 52 52 51 51 52 52 53 52 52 52 52
51 52 53 54 57 58 59 59 59 59 60 60 60 60 60 60 61 61 61 61 61 61 60 60 61 61 61 61 61 61 61 61 60 60 60 60 59 59 59 59 59 58 58 58 58 57 57 56 55 55 54 54 53 53 52 52 52 52 51 51 51 51 52 52 52 53 53 52 52
51 51 51 52 54 56 58 60 59 59 60 60 60 60 60 60 60 60 60 60 61 60 60 60 60 60 60 60 60 60 60 61 60 60 60 60 59 59 59 59 59 58 58 58 58 57 56 56 55 54 54 53 53 52 52 51 51 51 50 51 51 51 51 52 52 52 52 52 51
51 51 51 52 52 54 56 59 59 59 59 60 60 60 60 60 60 60 60 60 60 60 60 60 60 60 60 60 60 60 60 60 60 60 60 59 59 59 59 59 59 58 58 58 58 57 56 55 55 54 54 53 53 52 52 51 51 50 50 50 50 50 51 52 52 51 51 51 51
51 51 51 52 52 53 54 57 59 59 59 58 59 59 60 60 60 60 60 60 60 60 60 60 60 60 60 60 60 60 60 60 60 60 59 59 59 59 59 59 58 58 57 56 56 55 55 55 54 54 54 54 53 53 52 52 51 51 50 50 49 49 50 51 51 51 51 50 50
51 51 51 52 52 52 53 55 57 59 59 58 58 59 59 60 60 60 60 59 59 59 59 60 60 60 60 60 60 60 60 60 59 59 59 59 59 59 59 59 58 57 56 56 55 55 54 54 54 54 54 54 53 53 52 52 51 51 50 50 49 49 49 51 50 50 50 50 50
51 51 51 52 52 52 52 53 55 57 59 59 58 58 58 59 59 59 59 59 59 59 60 60 60 60 60 60 60 60 60 59 59 59 59 59 59 58 58 58 57 56 56 56 55 55 55 55 54 54 54 54 53 53 52 52 52 51 51 50 50 49 49 50 50 50 50 49 49
51 51 51 52 52 52 52 52 53 55 57 59 59 58 57 58 59 59 59 59 59 59 60 60 60 60 60 60 60 60 60 59 59 58 58 58 58 58 58 58 58 57 57 57 56 56 56 56 55 55 54 54 53 53 52 51 51 51 51 51 50 50 49 49 49 49 49 48 48
51 51 51 52 52 52 52 52 52 53 55 58 59 59 58 58 59 59 59 59 59 59 59 59 59 59 60 60 59 59 60 60 59 59 58 58 57 57 57 58 58 57 57 57 56 56 57 57 56 55 54 54 53 52 52 51 51 51 51 50 50 50 49 48 48 47 47 47 47
51 51 51 51 51 51 51 52 52 53 54 56 58 59 58 58 59 59 59 59 59 59 59 59 59 59 59 59 59 59 59 59 59 58 58 58 57 56 56 57 57 57 56 56 56 57 57 57 56 56 55 54 53 53 52 52 51 51 50 50 50 50 49 48 47 47 46 46 46
51 51 51 51 51 51 51 52 53 53 54 55 57 58 59 58 58 58 59 59 59 59 59 59 58 59 59 59 59 58 58 59 58 58 58 57 57 56 56 56 56 55 55 56 57 57 57 57 57 56 55 54 53 53 52 52 52 51 51 50 50 49 49 48 47 46 46 45 45
51 51 51 51 51 51 51 51 53 54 54 54 55 57 59 59 58 58 58 58 58 59 59 59 59 59 59 58 58 58 57 57 57 57 57 56 56 56 55 55 54 54 55 56 57 57 57 57 56 56 55 54 54 53 53 52 52 51 51 51 50 49 49 48 47 46 46 45 45
50 51 51 51 51 51 51 52 52 53 54 53 54 55 57 59 58 58 57 58 58 58 59 60 60 59 58 57 57 57 56 56 56 56 56 55 55 55 55 55 54 54 55 56 57 57 57 57 56 56 55 54 54 53 53 52 52 52 51 51 50 49 48 48 47 46 46 45 45
50 50 50 51 51 51 51 52 52 53 53 53 54 55 56 58 58 57 57 57 57 58 58 59 59 58 57 56 56 55 55 55 55 55 55 55 55 55 54 54 54 54 54 55 56 57 57 56 56 56 55 55 54 53 53 52 52 52 51 50 50 49 48 47 46 46 46 45 45
49 49 49 50 50 51 51 52 52 53 53 53 53 54 55 57 58 58 57 56 56 56 57 57 57 57 56 56 55 55 55 55 54 55 55 55 54 54 53 54 54 54 54 55 56 57 57 56 56 55 55 55 54 53 53 52 52 52 51 50 49 49 48 48 47 46 46 45 45
49 49 49 49 49 50 51 51 52 53 53 53 53 54 55 56 57 58 58 57 56 56 56 56 56 56 56 55 55 55 54 55 55 55 54 54 54 53 53 53 54 54 55 55 56 57 56 56 56 55 55 54 54 53 53 53 52 51 50 50 49 49 48 48 46 46 46 46 45
48 48 48 48 49 50 50 51 52 52 53 53 53 54 54 55 56 58 58 58 57 56 55 55 56 56 56 56 56 56 55 55 55 54 54 54 54 53 53 54 55 55 55 55 56 56 56 56 55 55 55 54 53 53 52 52 51 51 50 49 48 48 48 47 46 46 46 46 46
48 48 48 48 48 49 50 50 51 52 52 53 53 53 53 54 55 57 57 57 57 56 56 55 55 55 56 56 56 56 56 56 55 55 54 54 54 54 54 55 56 55 54 55 56 56 56 56 55 55 54 54 53 52 52 51 50 49 48 48 47 47 46 46 46 46 46 46 45
48 48 48 48 48 48 49 50 50 51 52 52 53 53 53 54 55 56 57 57 57 57 56 55 55 55 55 55 55 55 55 56 55 55 55 55 54 54 55 55 55 54 54 55 55 56 56 55 55 54 54 53 53 52 51 50 49 48 47 47 46 46 45 45 45 45 45 45 45
48 48 48 48 48 48 49 49 50 50 51 51 52 53 53 54 54 55 56 57 57 57 57 56 55 55 54 54 54 55 55 55 55 55 55 55 55 55 55 55 55 54 53 54 55 55 55 55 55 54 53 53 52 51 50 49 48 47 46 45 45 45 44 44 44 44 44 43 44
47 48 48 48 48 48 48 49 49 49 50 51 51 52 53 54 54 55 55 56 57 58 57 56 55 55 55 55 55 54 54 55 55 55 55 55 55 55 55 55 55 54 53 53 54 55 55 55 54 54 53 52 51 50 49 48 47 46 45 44 44 43 43 43 43 43 43 43 44
47 48 48 48 48 48 48 48 48 49 49 50 51 52 53 53 54 54 55 56 57 58 57 57 56 55 55 55 55 55 54 54 55 55 55 55 55 55 55 55 55 55 54 53 54 54 54 54 54 54 53 52 51 49 48 47 46 45 44 43 42 42 42 42 42 42 42 42 44
47 47 48 48 48 48 48 48 48 49 49 50 50 51 52 53 53 54 54 55 57 58 58 57 56 55 55 55 55 55 54 54 55 55 55 55 55 54 54 55 55 55 54 53 53 53 54 54 54 53 53 52 50 49 48 47 45 44 43 42 42 41 40 40 41 41 41 42 43
47 47 47 48 48 48 48 48 48 49 49 50 50 51 51 52 53 53 54 54 56 57 58 58 57 55 55 54 55 55 54 54 54 55 55 55 54 54 54 55 55 55 54 53 53 53 53 54 54 53 53 51 50 49 48 46 45 44 42 42 41 41 40 39 39 40 40 40 41
MSLP
999.79 999.91 1000.03 1000.19 1000.39 1000.59 1000.83 1001.07 1001.27 1001.43 1001.63 1001.95 1002.27 1002.59 1002.87 1003.11 1003.31 1003.51 1003.71 1003.95 1004.15 1004.39 1004.59 1004.83 1005.11 1005.39 1005.71 1005.99 1006.27 1006.55 1006.71 1006.99 1007.19 1007.43 1007.59 1007.83 1007.99 1008.19 1008.39 1008.59 1008.83 1009.03 1009.27 1009.43 1009.67 1009.87 1010.07 1010.23 1010.39 1010.63 1010.83 1010.99 1011.27 1011.43 1011.55 1011.71 1011.91 1012.11 1012.27 1012.39 1012.55 1012.75 1012.91 1013.07 1013.23 1013.39 1013.51 1013.63 1013.67
999.83 999.99 1000.11 1000.27 1000.47 1000.71 1000.91 1001.19 1001.43 1001.67 1001.83 1002.07 1002.35 1002.59 1002.91 1003.19 1003.39 1003.55 1003.75 1003.99 1004.15 1004.35 1004.55 1004.83 1005.11 1005.39 1005.67 1005.99 1006.23 1006.47 1006.71 1006.95 1007.11 1007.35 1007.59 1007.83 1007.99 1008.19 1008.39 1008.55 1008.75 1008.95 1009.15 1009.39 1009.59 1009.79 1009.99 1010.15 1010.35 1010.55 1010.75 1010.99 1011.19 1011.39 1011.55 1011.63 1011.79 1011.99 1012.19 1012.35 1012.51 1012.71 1012.87 1012.99 1013.11 1013.23 1013.35 1013.47 1013.59
999.95 1000.07 1000.23 1000.39 1000.55 1000.75 1000.99 1001.27 1001.51 1001.71 1001.91 1002.19 1002.43 1002.75 1003.03 1003.31 1003.55 1003.71 1003.83 1003.99 1004.15 1004.39 1004.63 1004.83 1005.07 1005.35 1005.63 1005.95 1006.19 1006.43 1006.67 1006.87 1007.11 1007.31 1007.59 1007.83 1007.99 1008.15 1008.35 1008.51 1008.71 1008.91 1009.11 1009.27 1009.51 1009.71 1009.87 1010.07 1010.27 1010.47 1010.71 1010.87 1011.07 1011.27 1011.43 1011.59 1011.71 1011.87 1012.07 1012.27 1012.39 1012.59 1012.79 1012.91 1012.99 1013.11 1013.27 1013.43 1013.55
999.99 1000.15 1000.35 1000.55 1000.63 1000.75 1000.95 1001.19 1001.43 1001.67 1001.99 1002.35 1002.63 1002.95 1003.23 1003.47 1003.71 1003.83 1003.91 1004.03 1004.27 1004.47 1004.63 1004.83 1005.03 1005.31 1005.59 1005.87 1006.11 1006.39 1006.59 1006.83 1007.03 1007.27 1007.51 1007.79 1007.99 1008.11 1008.31 1008.47 1008.67 1008.83 1009.03 1009.23 1009.43 1009.59 1009.79 1009.99 1010.15 1010.35 1010.55 1010.75 1010.95 1011.11 1011.27 1011.43 1011.59 1011.75 1011.91 1012.11 1012.27 1012.47 1012.67 1012.79 1012.91 1013.07 1013.19 1013.35 1013.51
1000.11 1000.27 1000.43 1000.59 1000.71 1000.83 1000.99 1001.19 1001.43 1001.75 1002.15 1002.51 1002.79 1003.07 1003.35 1003.59 1003.83 1003.99 1004.07 1004.15 1004.35 1004.51 1004.63 1004.79 1004.99 1005.27 1005.55 1005.83 1006.11 1006.35 1006.55 1006.79 1006.99 1007.23 1007.47 1007.75 1007.95 1008.11 1008.27 1008.39 1008.59 1008.79 1008.99 1009.15 1009.31 1009.51 1009.71 1009.91 1010.07 1010.27 1010.43 1010.63 1010.79 1010.95 1011.11 1011.31 1011.51 1011.67 1011.83 1011.99 1012.11 1012.27 1012.47 1012.67 1012.87 1013.03 1013.15 1013.27 1013.43
1000.27 1000.39 1000.55 1000.71 1000.83 1000.99 1001.11 1001.31 1001.55 1001.87 1002.27 1002.55 1002.83 1003.11 1003.39 1003.63 1003.83 1004.03 1004.19 1004.27 1004.39 1004.55 1004.67 1004.83 1004.99 1005.27 1005.55 1005.79 1006.03 1006.27 1006.51 1006.75 1006.95 1007.19 1007.47 1007.71 1007.91 1008.07 1008.19 1008.39 1008.55 1008.71 1008.87 1009.07 1009.27 1009.43 1009.63 1009.83 1009.99 1010.19 1010.39 1010.55 1010.67 1010.83 1010.99 1011.19 1011.39 1011.55 1011.71 1011.91 1011.99 1012.11 1012.27 1012.55 1012.79 1012.95 1013.11 1013.27 1013.39
1000.35 1000.55 1000.67 1000.83 1000.99 1001.19 1001.35 1001.51 1001.71 1002.03 1002.35 1002.63 1002.87 1003.11 1003.35 1003.59 1003.83 1004.07 1004.23 1004.31 1004.39 1004.55 1004.71 1004.83 1004.99 1005.23 1005.51 1005.75 1005.99 1006.23 1006.43 1006.71 1006.95 1007.19 1007.43 1007.67 1007.83 1007.99 1008.11 1008.31 1008.51 1008.67 1008.83 1008.99 1009.19 1009.39 1009.55 1009.71 1009.91 1010.11 1010.27 1010.43 1010.55 1010.71 1010.91 1011.11 1011.27 1011.43 1011.59 1011.71 1011.79 1011.87 1012.11 1012.43 1012.67 1012.83 1012.99 1013.15 1013.27
1000.55 1000.71 1000.79 1000.91 1001.11 1001.31 1001.51 1001.71 1001.91 1002.11 1002.39 1002.71 1002.95 1003.15 1003.39 1003.63 1003.83 1004.07 1004.23 1004.31 1004.39 1004.55 1004.71 1004.83 1004.99 1005.19 1005.43 1005.71 1005.87 1006.11 1006.43 1006.75 1006.99 1007.19 1007.39 1007.55 1007.75 1007.91 1008.11 1008.27 1008.43 1008.59 1008.75 1008.95 1009.11 1009.31 1009.47 1009.67 1009.83 1009.99 1010.19 1010.35 1010.47 1010.63 1010.83 1010.99 1011.15 1011.31 1011.43 1011.51 1011.55 1011.71 1011.95 1012.23 1012.47 1012.71 1012.83 1012.99 1013.11
1000.79 1000.91 1001.03 1001.15 1001.27 1001.47 1001.67 1001.83 1001.99 1002.23 1002.47 1002.79 1003.03 1003.23 1003.43 1003.63 1003.83 1004.03 1004.19 1004.31 1004.39 1004.51 1004.67 1004.83 1004.99 1005.15 1005.35 1005.63 1005.87 1006.15 1006.43 1006.75 1006.95 1007.11 1007.27 1007.43 1007.67 1007.83 1008.03 1008.23 1008.39 1008.55 1008.71 1008.87 1009.07 1009.27 1009.43 1009.59 1009.75 1009.95 1010.11 1010.23 1010.39 1010.55 1010.75 1010.95 1011.11 1011.23 1011.27 1011.39 1011.51 1011.71 1011.91 1012.11 1012.35 1012.51 1012.67 1012.79 1012.99
1000.99 1001.11 1001.27 1001.43 1001.55 1001.67 1001.79 1001.95 1002.11 1002.31 1002.59 1002.87 1003.11 1003.31 1003.51 1003.71 1003.91 1004.03 1004.15 1004.27 1004.35 1004.51 1004.67 1004.83 1004.99 1005.19 1005.43 1005.67 1005.91 1006.19 1006.43 1006.67 1006.83 1006.99 1007.15 1007.31 1007.55 1007.75 1007.95 1008.11 1008.31 1008.51 1008.71 1008.87 1008.99 1009.19 1009.35 1009.51 1009.71 1009.83 1009.99 1010.11 1010.31 1010.51 1010.71 1010.87 1011.03 1011.15 1011.23 1011.27 1011.51 1011.71 1011.95 1012.11 1012.27 1012.39 1012.55 1012.67 1012.83
1001.19 1001.31 1001.43 1001.59 1001.71 1001.83 1001.99 1002.11 1002.27 1002.47 1002.71 1002.99 1003.23 1003.43 1003.63 1003.83 1003.99 1004.07 1004.11 1004.23 1004.39 1004.55 1004.67 1004.83 1004.99 1005.19 1005.43 1005.71 1005.95 1006.15 1006.35 1006.55 1006.67 1006.83 1006.99 1007.23 1007.43 1007.67 1007.83 1008.03 1008.23 1008.39 1008.59 1008.79 1008.95 1009.11 1009.31 1009.43 1009.63 1009.83 1009.95 1010.11 1010.23 1010.43 1010.67 1010.83 1010.99 1011.07 1011.15 1011.27 1011.51 1011.75 1011.95 1012.07 1012.15 1012.27 1012.39 1012.55 1012.71
1001.43 1001.55 1001.67 1001.71 1001.83 1001.99 1002.11 1002.27 1002.43 1002.67 1002.91 1003.11 1003.35 1003.55 1003.75 1003.95 1003.99 1004.03 1004.11 1004.23 1004.39 1004.55 1004.71 1004.83 1004.99 1005.23 1005.47 1005.71 1005.91 1006.11 1006.23 1006.39 1006.55 1006.71 1006.95 1007.15 1007.39 1007.59 1007.79 1007.95 1008.11 1008.31 1008.47 1008.71 1008.87 1009.03 1009.23 1009.39 1009.55 1009.75 1009.95 1010.03 1010.19 1010.39 1010.55 1010.75 1010.87 1010.99 1011.11 1011.31 1011.51 1011.71 1011.87 1011.99 1012.03 1012.11 1012.27 1012.39 1012.63
1001.71 1001.83 1001.91 1001.95 1002.03 1002.15 1002.27 1002.47 1002.63 1002.83 1003.03 1003.27 1003.47 1003.67 1003.83 1003.99 1003.99 1003.99 1004.07 1004.27 1004.39 1004.59 1004.75 1004.95 1005.07 1005.23 1005.43 1005.67 1005.83 1005.95 1006.11 1006.27 1006.39 1006.63 1006.87 1007.11 1007.35 1007.55 1007.75 1007.91 1008.07 1008.27 1008.39 1008.63 1008.79 1008.95 1009.11 1009.27 1009.47 1009.67 1009.83 1009.99 1010.11 1010.27 1010.47 1010.67 1010.75 1010.91 1011.07 1011.27 1011.43 1011.59 1011.71 1011.83 1011.91 1012.03 1012.19 1012.39 1012.55
1002.07 1002.15 1002.23 1002.27 1002.31 1002.39 1002.55 1002.71 1002.83 1002.99 1003.19 1003.39 1003.55 1003.71 1003.83 1003.91 1003.95 1003.99 1004.07 1004.27 1004.47 1004.67 1004.83 1004.99 1005.11 1005.23 1005.39 1005.55 1005.71 1005.79 1005.95 1006.15 1006.39 1006.59 1006.83 1007.11 1007.31 1007.51 1007.71 1007.83 1007.99 1008.19 1008.35 1008.55 1008.67 1008.83 1008.99 1009.19 1009.39 1009.55 1009.71 1009.91 1010.03 1010.19 1010.35 1010.51 1010.63 1010.79 1010.95 1011.11 1011.31 1011.47 1011.55 1011.67 1011.79 1011.95 1012.11 1012.31 1012.47
1002.39 1002.43 1002.51 1002.55 1002.63 1002.75 1002.87 1002.99 1003.07 1003.19 1003.31 1003.43 1003.59 1003.75 1003.83 1003.87 1003.91 1003.99 1004.07 1004.27 1004.51 1004.67 1004.79 1004.95 1005.07 1005.19 1005.27 1005.43 1005.55 1005.71 1005.91 1006.15 1006.39 1006.63 1006.83 1007.11 1007.27 1007.47 1007.63 1007.75 1007.95 1008.11 1008.27 1008.43 1008.59 1008.75 1008.87 1009.03 1009.23 1009.43 1009.55 1009.75 1009.95 1010.11 1010.27 1010.39 1010.51 1010.63 1010.79 1010.95 1011.11 1011.27 1011.43 1011.55 1011.71 1011.83 1012.03 1012.19 1012.39
1002.83 1002.75 1002.79 1002.83 1002.91 1002.99 1003.11 1003.19 1003.27 1003.31 1003.39 1003.47 1003.59 1003.71 1003.83 1003.87 1003.91 1003.99 1004.11 1004.31 1004.51 1004.67 1004.83 1004.91 1005.03 1005.11 1005.27 1005.43 1005.55 1005.75 1005.99 1006.15 1006.39 1006.63 1006.83 1007.03 1007.23 1007.39 1007.55 1007.71 1007.83 1007.99 1008.15 1008.35 1008.51 1008.67 1008.79 1008.91 1009.07 1009.27 1009.43 1009.63 1009.83 1009.99 1010.15 1010.27 1010.39 1010.51 1010.63 1010.79 1010.95 1011.11 1011.27 1011.43 1011.59 1011.75 1011.91 1012.07 1012.23
1003.43 1003.27 1003.15 1003.11 1003.11 1003.11 1003.19 1003.27 1003.35 1003.39 1003.43 1003.47 1003.55 1003.67 1003.75 1003.87 1003.99 1004.03 1004.15 1004.35 1004.51 1004.71 1004.83 1004.91 1004.99 1005.11 1005.27 1005.43 1005.59 1005.79 1005.99 1006.15 1006.39 1006.59 1006.79 1006.99 1007.15 1007.27 1007.43 1007.59 1007.75 1007.91 1008.07 1008.23 1008.39 1008.55 1008.71 1008.83 1008.99 1009.11 1009.27 1009.47 1009.67 1009.83 1009.99 1010.11 1010.27 1010.39 1010.55 1010.67 1010.83 1010.99 1011.11 1011.27 1011.43 1011.59 1011.79 1011.95 1012.11
1003.83 1003.71 1003.59 1003.43 1003.35 1003.31 1003.31 1003.35 1003.43 1003.43 1003.47 1003.51 1003.55 1003.67 1003.75 1003.87 1003.99 1004.11 1004.19 1004.35 1004.47 1004.67 1004.83 1004.95 1005.03 1005.15 1005.27 1005.43 1005.59 1005.75 1005.91 1006.11 1006.39 1006.55 1006.71 1006.87 1007.03 1007.19 1007.35 1007.51 1007.67 1007.83 1007.99 1008.11 1008.27 1008.43 1008.59 1008.75 1008.91 1009.07 1009.27 1009.43 1009.55 1009.71 1009.87 1009.99 1010.15 1010.27 1010.43 1010.59 1010.75 1010.91 1011.03 1011.15 1011.27 1011.47 1011.67 1011.83 1011.99
1004.19 1004.07 1003.95 1003.83 1003.67 1003.55 1003.51 1003.51 1003.51 1003.51 1003.55 1003.55 1003.63 1003.71 1003.83 1003.87 1004.03 1004.15 1004.27 1004.39 1004.51 1004.67 1004.83 1004.99 1005.07 1005.19 1005.27 1005.39 1005.55 1005.71 1005.87 1006.11 1006.27 1006.47 1006.63 1006.83 1006.99 1007.11 1007.27 1007.43 1007.55 1007.71 1007.83 1007.99 1008.11 1008.27 1008.47 1008.63 1008.79 1008.99 1009.15 1009.35 1009.51 1009.63 1009.79 1009.91 1010.07 1010.23 1010.39 1010.55 1010.71 1010.83 1010.99 1011.11 1011.23 1011.39 1011.55 1011.71 1011.83
1004.47 1004.39 1004.19 1004.03 1003.87 1003.75 1003.63 1003.51 1003.55 1003.55 1003.55 1003.59 1003.71 1003.83 1003.95 1004.07 1004.19 1004.31 1004.39 1004.51 1004.55 1004.67 1004.79 1004.95 1005.07 1005.19 1005.27 1005.39 1005.55 1005.71 1005.83 1006.03 1006.23 1006.39 1006.55 1006.75 1006.91 1007.03 1007.19 1007.31 1007.47 1007.59 1007.75 1007.87 1008.03 1008.19 1008.39 1008.55 1008.71 1008.91 1009.07 1009.27 1009.43 1009.59 1009.75 1009.91 1010.03 1010.19 1010.35 1010.51 1010.67 1010.79 1010.91 1010.99 1011.15 1011.31 1011.47 1011.63 1011.79
1004.63 1004.59 1004.47 1004.27 1004.15 1004.03 1003.87 1003.75 1003.71 1003.71 1003.71 1003.75 1003.83 1003.91 1004.07 1004.27 1004.35 1004.43 1004.55 1004.63 1004.67 1004.71 1004.79 1004.91 1004.99 1005.11 1005.27 1005.39 1005.55 1005.67 1005.83 1005.99 1006.15 1006.31 1006.51 1006.67 1006.83 1006.95 1007.07 1007.19 1007.35 1007.51 1007.63 1007.79 1007.95 1008.11 1008.27 1008.43 1008.63 1008.83 1008.99 1009.11 1009.31 1009.47 1009.67 1009.87 1010.03 1010.19 1010.39 1010.51 1010.63 1010.75 1010.87 1010.99 1011.15 1011.31 1011.47 1011.63 1011.75
1004.71 1004.71 1004.63 1004.55 1004.43 1004.31 1004.19 1004.03 1003.91 1003.91 1003.95 1003.95 1003.95 1003.99 1004.11 1004.27 1004.35 1004.39 1004.47 1004.59 1004.67 1004.71 1004.79 1004.83 1004.95 1005.11 1005.23 1005.31 1005.47 1005.59 1005.75 1005.87 1006.07 1006.27 1006.39 1006.55 1006.71 1006.79 1006.91 1007.07 1007.27 1007.43 1007.55 1007.71 1007.87 1008.03 1008.19 1008.35 1008.55 1008.71 1008.87 1009.03 1009.19 1009.39 1009.55 1009.79 1009.99 1010.15 1010.35 1010.51 1010.63 1010.79 1010.91 1010.99 1011.15 1011.31 1011.47 1011.59 1011.71
1004.87 1004.79 1004.75 1004.75 1004.71 1004.55 1004.39 1004.27 1004.11 1003.99 1003.99 1004.07 1004.07 1004.11 1004.11 1004.15 1004.23 1004.27 1004.27 1004.35 1004.43 1004.55 1004.67 1004.83 1004.95 1005.03 1005.11 1005.27 1005.43 1005.55 1005.71 1005.83 1006.03 1006.15 1006.31 1006.47 1006.55 1006.71 1006.83 1006.99 1007.11 1007.31 1007.47 1007.63 1007.79 1007.95 1008.11 1008.31 1008.47 1008.63 1008.79 1008.99 1009.11 1009.31 1009.51 1009.71 1009.91 1010.11 1010.27 1010.47 1010.63 1010.79 1010.95 1011.07 1011.19 1011.31 1011.43 1011.55 1011.71
1005.15 1004.99 1004.95 1004.91 1004.83 1004.79 1004.67 1004.51 1004.31 1004.15 1004.07 1003.99 1004.07 1004.07 1004.03 1004.03 1004.03 1004.07 1004.11 1004.23 1004.35 1004.51 1004.67 1004.83 1004.95 1005.03 1005.15 1005.27 1005.39 1005.47 1005.63 1005.79 1005.99 1006.11 1006.23 1006.35 1006.43 1006.59 1006.71 1006.83 1006.99 1007.15 1007.35 1007.51 1007.67 1007.83 1007.99 1008.23 1008.39 1008.59 1008.75 1008.87 1009.07 1009.27 1009.43 1009.59 1009.79 1009.99 1010.23 1010.39 1010.63 1010.83 1010.95 1011.11 1011.19 1011.31 1011.43 1011.55 1011.71
1005.39 1005.19 1005.07 1005.03 1004.99 1004.95 1004.83 1004.71 1004.59 1004.39 1004.23 1004.03 1003.99 1003.99 1003.99 1003.99 1003.99 1004.03 1004.11 1004.23 1004.39 1004.55 1004.71 1004.83 1004.95 1005.07 1005.15 1005.27 1005.35 1005.43 1005.55 1005.71 1005.87 1005.99 1006.11 1006.23 1006.35 1006.47 1006.59 1006.71 1006.87 1007.03 1007.19 1007.35 1007.55 1007.71 1007.83 1008.03 1008.27 1008.47 1008.67 1008.83 1009.03 1009.23 1009.43 1009.55 1009.71 1009.91 1010.11 1010.31 1010.55 1010.75 1010.99 1011.15 1011.27 1011.35 1011.43 1011.55 1011.67
1005.63 1005.43 1005.27 1005.19 1005.11 1005.03 1004.99 1004.91 1004.83 1004.71 1004.47 1004.27 1004.07 1003.99 1003.99 1003.99 1003.99 1004.03 1004.11 1004.27 1004.39 1004.55 1004.67 1004.79 1004.91 1004.99 1005.11 1005.23 1005.35 1005.43 1005.55 1005.63 1005.75 1005.87 1006.03 1006.11 1006.27 1006.39 1006.51 1006.63 1006.79 1006.91 1007.07 1007.23 1007.43 1007.55 1007.71 1007.91 1008.11 1008.27 1008.51 1008.71 1008.95 1009.15 1009.39 1009.55 1009.71 1009.83 1009.99 1010.27 1010.43 1010.67 1010.91 1011.11 1011.27 1011.39 1011.51 1011.63 1011.71
1005.95 1005.75 1005.59 1005.43 1005.27 1005.19 1005.11 1005.03 1004.99 1004.87 1004.71 1004.47 1004.27 1004.11 1004.07 1004.07 1004.07 1004.11 1004.11 1004.27 1004.39 1004.51 1004.63 1004.75 1004.83 1004.95 1005.03 1005.15 1005.27 1005.39 1005.47 1005.55 1005.67 1005.79 1005.87 1005.99 1006.15 1006.27 1006.39 1006.55 1006.71 1006.83 1006.99 1007.11 1007.27 1007.47 1007.63 1007.79 1007.99 1008.15 1008.39 1008.59 1008.83 1009.03 1009.27 1009.43 1009.63 1009.83 1010.03 1010.19 1010.39 1010.55 1010.71 1010.95 1011.15 1011.35 1011.51 1011.67 1011.75
1006.19 1006.03 1005.87 1005.71 1005.55 1005.39 1005.23 1005.11 1005.03 1004.95 1004.83 1004.67 1004.51 1004.31 1004.19 1004.27 1004.23 1004.19 1004.19 1004.27 1004.35 1004.47 1004.59 1004.71 1004.83 1004.87 1004.99 1005.11 1005.19 1005.27 1005.39 1005.47 1005.55 1005.67 1005.79 1005.91 1006.03 1006.15 1006.27 1006.43 1006.55 1006.71 1006.83 1006.99 1007.15 1007.31 1007.51 1007.71 1007.87 1008.03 1008.23 1008.43 1008.71 1008.91 1009.11 1009.35 1009.55 1009.79 1009.99 1010.15 1010.31 1010.47 1010.63 1010.83 1011.03 1011.27 1011.47 1011.67 1011.79
1006.35 1006.19 1006.03 1005.87 1005.71 1005.55 1005.35 1005.19 1005.07 1004.95 1004.83 1004.83 1004.71 1004.55 1004.39 1004.31 1004.27 1004.27 1004.19 1004.23 1004.31 1004.43 1004.55 1004.63 1004.71 1004.79 1004.91 1005.03 1005.07 1005.15 1005.27 1005.39 1005.43 1005.55 1005.71 1005.83 1005.99 1006.11 1006.23 1006.35 1006.51 1006.63 1006.75 1006.87 1007.07 1007.23 1007.43 1007.59 1007.75 1007.95 1008.11 1008.31 1008.55 1008.79 1008.99 1009.23 1009.43 1009.63 1009.83 1010.03 1010.19 1010.35 1010.55 1010.75 1010.99 1011.19 1011.43 1011.59 1011.79
1006.43 1006.27 1006.11 1005.99 1005.83 1005.71 1005.55 1005.35 1005.15 1004.99 1004.91 1004.87 1004.83 1004.67 1004.47 1004.27 1004.23 1004.19 1004.15 1004.19 1004.27 1004.31 1004.35 1004.43 1004.55 1004.67 1004.79 1004.87 1004.99 1005.07 1005.19 1005.27 1005.39 1005.51 1005.63 1005.79 1005.91 1006.03 1006.11 1006.27 1006.39 1006.55 1006.67 1006.79 1006.95 1007.11 1007.31 1007.51 1007.67 1007.83 1007.99 1008.19 1008.39 1008.67 1008.91 1009.11 1009.31 1009.51 1009.71 1009.91 1010.11 1010.27 1010.47 1010.71 1010.91 1011.11 1011.31 1011.55 1011.75
1006.55 1006.35 1006.15 1006.07 1005.99 1005.87 1005.75 1005.59 1005.43 1005.19 1005.03 1004.91 1004.83 1004.71 1004.51 1004.31 1004.15 1004.11 1004.11 1004.11 1004.11 1004.15 1004.19 1004.31 1004.39 1004.55 1004.67 1004.75 1004.83 1004.99 1005.11 1005.19 1005.27 1005.43 1005.55 1005.71 1005.83 1005.95 1006.07 1006.23 1006.35 1006.47 1006.59 1006.71 1006.83 1006.99 1007.23 1007.43 1007.55 1007.71 1007.91 1008.11 1008.27 1008.55 1008.79 1008.99 1009.19 1009.43 1009.55 1009.79 1009.99 1010.19 1010.39 1010.63 1010.83 1011.03 1011.23 1011.43 1011.63
1006.63 1006.39 1006.23 1006.11 1005.99 1005.91 1005.83 1005.79 1005.67 1005.47 1005.27 1005.11 1004.91 1004.75 1004.55 1004.39 1004.19 1004.07 1004.03 1004.03 1004.07 1004.11 1004.15 1004.27 1004.31 1004.39 1004.55 1004.63 1004.75 1004.83 1004.99 1005.11 1005.23 1005.31 1005.43 1005.55 1005.71 1005.87 1006.03 1006.15 1006.27 1006.39 1006.55 1006.59 1006.75 1006.91 1007.11 1007.27 1007.47 1007.67 1007.83 1007.99 1008.15 1008.39 1008.67 1008.83 1009.07 1009.27 1009.47 1009.71 1009.87 1010.07 1010.27 1010.51 1010.71 1010.91 1011.11 1011.27 1011.47
1006.71 1006.55 1006.31 1006.11 1005.95 1005.83 1005.83 1005.75 1005.71 1005.55 1005.43 1005.27 1005.07 1004.83 1004.63 1004.39 1004.23 1004.03 1003.95 1003.95 1003.99 1004.03 1004.11 1004.11 1004.19 1004.27 1004.39 1004.51 1004.63 1004.71 1004.83 1004.99 1005.07 1005.19 1005.31 1005.43 1005.63 1005.83 1005.99 1006.15 1006.27 1006.35 1006.43 1006.51 1006.63 1006.79 1006.99 1007.19 1007.39 1007.59 1007.75 1007.95 1008.11 1008.35 1008.55 1008.79 1008.99 1009.23 1009.43 1009.67 1009.87 1010.03 1010.23 1010.43 1010.63 1010.83 1010.99 1011.15 1011.31
1006.87 1006.67 1006.47 1006.27 1006.03 1005.83 1005.67 1005.63 1005.59 1005.55 1005.43 1005.31 1005.19 1004.99 1004.75 1004.51 1004.27 1004.07 1003.95 1003.91 1003.91 1003.95 1003.99 1003.99 1004.03 1004.11 1004.19 1004.27 1004.39 1004.55 1004.71 1004.83 1004.99 1005.11 1005.27 1005.43 1005.55 1005.79 1005.95 1006.07 1006.11 1006.23 1006.31 1006.43 1006.55 1006.71 1006.91 1007.11 1007.31 1007.55 1007.71 1007.91 1008.11 1008.35 1008.55 1008.79 1008.99 1009.23 1009.47 1009.71 1009.91 1010.11 1010.27 1010.43 1010.59 1010.79 1010.95 1011.11 1011.27
1007.11 1006.87 1006.67 1006.47 1006.27 1005.99 1005.71 1005.51 1005.43 1005.43 1005.35 1005.27 1005.19 1005.07 1004.91 1004.71 1004.47 1004.23 1003.99 1003.91 1003.87 1003.83 1003.87 1003.91 1003.95 1003.99 1004.11 1004.15 1004.23 1004.39 1004.55 1004.71 1004.87 1005.03 1005.19 1005.35 1005.55 1005.71 1005.87 1005.99 1006.03 1006.11 1006.27 1006.39 1006.51 1006.67 1006.83 1007.07 1007.27 1007.51 1007.71 1007.91 1008.15 1008.39 1008.55 1008.79 1008.99 1009.27 1009.47 1009.71 1009.95 1010.11 1010.31 1010.47 1010.63 1010.83 1010.95 1011.07 1011.23
1007.35 1007.11 1006.87 1006.67 1006.47 1006.27 1005.99 1005.71 1005.43 1005.27 1005.19 1005.11 1005.11 1004.99 1004.87 1004.75 1004.59 1004.35 1004.15 1003.99 1003.83 1003.83 1003.83 1003.87 1003.91 1003.99 1004.07 1004.11 1004.19 1004.31 1004.43 1004.59 1004.79 1004.95 1005.11 1005.27 1005.43 1005.63 1005.75 1005.83 1005.95 1006.07 1006.15 1006.27 1006.39 1006.55 1006.79 1006.99 1007.27 1007.51 1007.71 1007.95 1008.19 1008.39 1008.63 1008.83 1009.07 1009.31 1009.55 1009.75 1009.99 1010.15 1010.35 1010.51 1010.71 1010.83 1010.99 1011.11 1011.23
1007.47 1007.27 1007.07 1006.87 1006.71 1006.47 1006.27 1005.99 1005.67 1005.39 1005.15 1005.07 1004.99 1004.83 1004.71 1004.63 1004.51 1004.35 1004.15 1003.99 1003.83 1003.75 1003.75 1003.83 1003.91 1003.95 1003.99 1004.03 1004.11 1004.19 1004.31 1004.43 1004.63 1004.83 1004.99 1005.15 1005.31 1005.47 1005.63 1005.75 1005.83 1005.99 1006.07 1006.15 1006.27 1006.47 1006.71 1006.95 1007.19 1007.43 1007.71 1007.91 1008.19 1008.43 1008.67 1008.87 1009.11 1009.39 1009.63 1009.83 1010.03 1010.27 1010.39 1010.59 1010.75 1010.91 1011.07 1011.19 1011.31
1007.59 1007.43 1007.27 1007.03 1006.83 1006.63 1006.43 1006.27 1005.99 1005.67 1005.39 1005.15 1004.95 1004.75 1004.63 1004.51 1004.35 1004.27 1004.11 1003.95 1003.83 1003.71 1003.71 1003.71 1003.79 1003.83 1003.87 1003.95 1004.03 1004.11 1004.19 1004.35 1004.47 1004.67 1004.83 1004.99 1005.11 1005.27 1005.43 1005.59 1005.71 1005.83 1005.95 1006.07 1006.19 1006.39 1006.59 1006.83 1007.11 1007.35 1007.55 1007.83 1008.11 1008.39 1008.63 1008.91 1009.15 1009.43 1009.67 1009.91 1010.11 1010.35 1010.55 1010.71 1010.83 1011.03 1011.19 1011.31 1011.43
1007.71 1007.51 1007.35 1007.15 1006.95 1006.75 1006.55 1006.39 1006.19 1005.95 1005.67 1005.35 1004.99 1004.79 1004.59 1004.47 1004.31 1004.23 1004.11 1003.95 1003.83 1003.71 1003.63 1003.59 1003.63 1003.71 1003.79 1003.87 1003.99 1004.07 1004.19 1004.27 1004.39 1004.51 1004.67 1004.83 1004.95 1005.07 1005.23 1005.39 1005.55 1005.71 1005.83 1005.99 1006.11 1006.27 1006.43 1006.71 1006.95 1007.15 1007.39 1007.67 1007.99 1008.27 1008.55 1008.83 1009.15 1009.43 1009.71 1009.99 1010.23 1010.51 1010.71 1010.83 1011.03 1011.19 1011.31 1011.47 1011.55
1007.71 1007.55 1007.39 1007.19 1007.03 1006.83 1006.67 1006.47 1006.27 1006.11 1005.83 1005.55 1005.23 1004.95 1004.71 1004.51 1004.35 1004.23 1004.11 1003.99 1003.83 1003.71 1003.59 1003.55 1003.55 1003.63 1003.71 1003.83 1003.91 1004.03 1004.15 1004.27 1004.31 1004.39 1004.51 1004.63 1004.79 1004.91 1005.07 1005.23 1005.39 1005.55 1005.75 1005.95 1006.07 1006.19 1006.31 1006.55 1006.75 1006.99 1007.27 1007.55 1007.87 1008.15 1008.47 1008.83 1009.15 1009.43 1009.71 1009.99 1010.27 1010.55 1010.83 1010.99 1011.19 1011.35 1011.51 1011.67 1011.75
1007.71 1007.55 1007.39 1007.19 1007.07 1006.87 1006.71 1006.55 1006.35 1006.15 1005.95 1005.71 1005.43 1005.11 1004.83 1004.55 1004.39 1004.23 1004.07 1003.99 1003.87 1003.71 1003.63 1003.55 1003.59 1003.67 1003.71 1003.75 1003.83 1003.91 1004.07 1004.23 1004.31 1004.35 1004.43 1004.55 1004.71 1004.83 1004.99 1005.11 1005.27 1005.47 1005.71 1005.87 1006.03 1006.15 1006.27 1006.43 1006.63 1006.83 1007.11 1007.43 1007.75 1008.07 1008.39 1008.71 1009.11 1009.43 1009.71 1009.99 1010.27 1010.55 1010.83 1011.11 1011.31 1011.47 1011.67 1011.83 1011.99
Wind_Speed
8 8 7 7 7 7 7 7 7 7 8 8 9 8 7 6 6 6 6 6 6 6 6 6 6 6 8 10 10 10 9 9 9 10 9 9 9 9 9 9 9 9 9 9 9 9 8 8 7 6 5 5 5 5 5 5 5 6 5 5 5 5 5 6 6 6 6 6 5
9 9 8 8 8 7 7 7 7 7 7 7 8 7 7 5 5 5 6 6 5 5 6 6 6 7 9 11 11 10 9 9 10 10 9 9 9 9 9 9 9 10 10 10 10 9 8 8 7 6 5 5 5 5 5 5 6 6 6 6 5 4 5 5 6 6 6 6 4
9 9 8 8 8 8 7 7 8 9 9 8 7 7 6 5 4 4 5 5 5 5 5 6 7 8 9 11 10 9 9 9 10 10 9 9 9 9 9 9 10 10 10 10 9 9 8 8 7 6 5 5 6 6 5 5 5 6 6 6 5 4 4 4 4 4 4 4 4
10 9 9 9 9 9 9 8 9 10 10 8 8 7 6 5 4 4 4 5 5 5 5 6 7 8 9 10 10 10 9 9 10 10 10 9 9 9 10 9 10 10 10 10 10 9 9 8 6 5 5 6 7 6 6 5 5 5 5 5 4 4 4 4 3 3 3 3 3
10 9 9 8 9 9 9 10 11 11 9 8 8 7 6 6 5 4 4 5 5 6 6 7 8 8 9 10 11 10 9 10 10 10 10 9 9 9 10 10 10 10 10 10 10 10 9 9 6 5 5 6 6 6 6 6 6 6 5 4 4 4 4 4 3 3 3 3 3
10 10 10 9 9 9 9 10 12 11 9 8 8 8 7 6 5 5 5 5 6 6 7 8 8 8 9 10 10 10 9 9 9 9 10 10 9 9 10 10 10 10 9 9 10 9 9 8 6 4 4 5 5 5 6 7 7 6 5 4 4 4 4 4 4 3 3 3 3
10 11 11 11 11 10 9 10 11 11 10 9 9 9 8 7 7 7 7 6 6 6 7 7 8 9 9 10 10 10 9 9 9 9 10 10 9 9 10 10 10 10 9 9 9 9 9 8 5 5 4 4 4 5 6 7 7 6 6 6 4 4 5 5 4 4 4 5 6
9 10 11 12 12 12 11 11 11 10 9 8 9 10 10 9 9 9 8 6 6 6 6 7 8 9 10 10 10 10 10 9 9 9 10 9 10 10 10 10 9 9 9 9 9 9 8 7 5 5 5 4 4 5 6 7 7 7 7 6 5 5 5 4 4 5 5 7 7
8 9 10 11 12 12 12 12 11 11 10 9 10 10 9 9 9 9 8 7 7 7 7 7 8 10 11 11 11 11 10 10 10 10 10 10 10 10 10 9 9 9 9 9 9 9 8 7 5 5 5 4 4 5 6 8 8 8 7 6 5 5 5 5 5 6 6 7 7
8 9 9 9 10 11 11 11 11 11 11 10 10 10 9 9 9 9 8 7 7 7 7 8 9 10 11 11 11 11 10 10 10 10 10 10 10 10 10 9 9 9 9 8 8 8 8 7 6 5 5 5 5 6 7 8 8 8 6 5 5 5 5 5 5 6 6 6 7
8 8 8 8 10 10 10 10 10 10 10 10 9 9 9 9 9 8 8 7 7 8 8 8 10 11 11 11 11 11 11 10 9 10 10 10 10 10 10 9 10 9 9 8 8 7 7 6 6 6 6 5 6 6 7 8 8 7 6 5 5 6 6 6 6 6 6 6 6
7 7 7 8 9 9 9 8 8 8 8 9 9 9 9 9 9 9 8 8 8 8 8 9 10 11 11 10 10 10 10 10 10 9 9 10 10 10 10 10 10 10 10 9 8 7 7 7 7 7 7 6 6 6 7 8 8 7 7 6 6 7 7 7 6 6 5 5 6
7 7 7 7 7 7 7 7 7 7 8 8 8 8 8 8 8 9 9 9 9 8 8 8 10 10 10 10 10 10 9 9 10 9 9 9 10 10 10 10 10 10 9 9 8 8 7 7 7 8 8 7 6 6 7 8 8 8 7 7 7 7 7 7 7 6 5 6 6
7 7 6 6 6 6 6 5 5 6 7 8 8 8 7 7 8 8 9 9 8 8 8 8 8 9 9 9 9 9 9 9 9 9 9 9 9 10 10 9 10 10 9 8 8 8 8 8 8 8 8 8 7 7 8 8 8 8 8 8 8 8 8 7 7 7 7 7 7
7 7 7 6 6 5 5 4 4 5 7 8 7 7 6 6 6 7 8 8 8 7 7 7 7 8 8 9 9 9 9 9 9 10 10 9 9 10 10 9 10 9 9 8 8 8 9 9 9 9 9 9 8 8 8 9 8 8 8 9 9 9 8 8 8 7 8 8 7
9 7 6 6 6 5 4 4 3 4 5 6 6 6 6 5 5 6 7 7 7 6 6 7 7 7 7 8 9 9 9 9 9 10 10 9 10 10 10 9 10 10 9 9 9 8 8 8 8 9 9 9 9 9 9 9 9 8 8 9 9 8 8 8 8 8 8 9 8
13 10 7 5 5 5 5 4 3 4 4 5 5 5 5 5 5 5 6 6 6 6 6 7 6 6 7 7 8 8 8 9 9 9 9 9 10 10 10 10 10 10 10 10 9 9 8 8 8 8 9 9 9 9 9 9 9 8 8 8 8 8 8 8 9 9 9 9 9
14 13 11 7 5 4 5 5 4 4 4 5 5 5 4 4 4 4 5 5 6 6 7 7 6 6 7 8 8 8 8 8 9 9 9 9 10 10 10 10 10 10 10 10 10 9 9 8 8 8 8 8 8 8 9 9 8 8 8 8 8 8 8 8 8 8 9 9 9
12 12 12 12 8 5 3 4 4 4 4 5 5 4 4 4 4 4 4 5 6 7 7 7 6 6 7 8 8 7 7 8 9 9 9 9 9 10 10 10 9 9 9 9 9 9 9 8 8 8 8 8 7 7 8 8 8 8 8 8 8 7 7 8 8 8 8 8 8
10 11 12 12 12 10 7 4 3 3 4 4 5 5 4 4 4 4 4 4 5 6 7 8 7 7 7 7 8 8 7 7 8 9 9 9 9 9 9 9 9 9 9 9 9 9 8 8 8 8 8 8 8 8 7 7 7 7 7 7 7 7 7 7 7 7 7 7 7
11 11 11 12 12 12 11 8 4 3 3 3 4 5 5 5 5 5 5 5 5 6 7 8 8 7 7 8 8 8 8 7 8 9 9 9 9 9 9 9 9 8 8 8 8 8 8 8 8 8 8 8 8 8 8 7 7 7 6 6 6 6 6 6 6 6 7 7 7
12 11 11 11 12 12 11 10 7 4 2 2 3 4 5 6 6 6 6 6 5 6 7 7 8 8 8 9 9 9 8 7 7 8 8 8 8 8 8 8 8 8 8 8 8 8 8 8 8 8 8 8 8 8 8 8 7 7 7 6 6 6 6 6 6 6 6 6 7
12 11 10 10 11 11 11 11 9 6 3 1 2 3 5 6 6 6 6 5 5 5 5 6 7 8 8 9 9 9 8 7 7 7 8 8 8 8 8 8 8 8 8 8 7 8 8 8 8 8 8 8 8 8 8 8 8 8 7 7 6 6 6 6 6 6 6 6 6
12 11 10 8 10 10 11 11 11 9 6 3 1 1 3 4 5 5 5 5 5 5 6 6 6 7 7 8 8 8 8 8 8 8 8 8 8 8 8 7 8 8 8 7 7 8 8 7 7 7 8 8 8 8 8 8 8 8 8 8 7 7 6 6 6 6 6 6 6
11 11 10 9 9 9 9 10 10 10 9 7 3 1 1 3 4 4 5 6 6 6 6 6 6 6 6 7 7 8 8 8 9 8 8 8 8 8 8 7 7 7 7 7 9 10 10 9 8 7 7 7 7 7 7 8 8 8 8 8 8 7 7 6 6 6 6 6 5
11 11 11 10 9 9 9 9 9 10 10 10 6 3 2 2 3 4 5 6 6 6 6 6 6 6 6 6 7 7 8 8 8 9 9 8 8 8 7 7 6 6 6 7 10 12 13 12 11 9 8 7 7 7 7 7 8 8 9 8 8 8 8 7 6 6 5 5 5
11 10 10 9 9 8 8 8 8 8 9 10 8 5 3 2 3 4 5 6 6 6 6 6 6 6 6 6 7 8 8 7 8 8 9 9 9 8 8 7 6 6 6 9 12 14 15 15 14 12 10 8 8 8 8 7 8 8 8 8 8 8 9 8 8 7 6 5 5
11 10 9 9 9 8 8 7 7 8 8 10 10 6 3 4 4 4 5 5 6 6 5 5 5 5 5 5 7 8 8 8 7 7 8 8 9 9 8 7 6 6 7 11 14 15 16 16 16 15 13 10 9 8 8 8 8 8 8 8 8 8 8 8 8 7 7 6 6
12 11 10 9 9 8 8 8 8 9 9 9 9 8 6 4 5 5 5 5 6 6 6 5 4 4 4 5 6 7 7 7 7 7 7 7 8 8 8 7 6 7 9 13 15 16 16 16 17 16 15 13 9 7 7 7 8 8 7 7 7 7 8 7 7 7 7 7 6
13 13 12 10 10 9 9 9 9 9 9 7 8 9 8 5 4 5 5 5 6 6 6 5 5 5 6 6 6 6 6 6 6 6 7 7 8 8 7 7 7 8 10 14 16 16 17 17 17 17 16 15 11 8 7 7 7 7 7 7 7 8 8 8 8 8 8 7 7
14 14 13 12 10 9 8 8 9 8 8 8 9 9 9 8 5 3 4 5 5 5 5 5 6 6 6 6 6 6 6 6 6 6 7 8 8 8 7 7 7 8 10 14 16 17 17 17 18 18 17 16 12 9 8 8 8 8 7 7 8 9 9 8 9 9 9 9 9
14 14 14 13 12 10 9 8 8 7 8 8 9 9 9 9 7 4 3 3 3 4 4 5 6 6 6 6 6 6 6 6 6 7 7 8 8 7 7 7 7 8 10 14 16 17 17 18 18 18 17 16 12 10 9 8 8 7 7 8 9 9 9 8 8 9 10 10 10
15 15 15 15 14 13 11 9 8 7 7 6 7 8 9 9 8 5 3 2 3 3 4 5 6 7 7 6 6 6 6 7 7 7 7 8 8 7 7 7 7 8 10 15 16 17 18 18 18 18 17 16 11 9 9 8 7 6 6 7 8 9 9 9 9 9 10 11 10
15 15 15 15 15 15 14 12 10 8 7 6 6 7 8 9 8 7 4 2 2 3 3 4 5 6 6 7 6 6 6 6 7 7 7 7 7 7 7 7 6 7 10 15 16 17 18 18 18 18 17 14 10 8 8 8 7 6 6 7 7 7 8 8 9 9 10 10 9
14 14 14 14 15 15 15 15 13 11 9 7 6 6 6 7 8 7 6 3 2 2 2 3 3 4 5 5 5 6 7 7 7 7 7 8 8 8 8 8 7 8 11 15 16 17 18 18 18 17 16 12 8 7 7 8 7 7 7 7 7 7 7 7 8 8 9 9 9
14 14 14 14 14 14 15 16 15 13 12 10 8 7 6 6 7 6 5 3 3 3 3 2 3 3 4 4 5 5 6 8 8 8 8 8 9 9 9 9 8 9 12 15 17 17 18 18 18 17 14 10 7 6 6 7 6 7 7 8 7 7 7 7 7 7 7 7 8
13 13 13 13 13 13 14 14 15 15 14 12 11 9 8 7 7 6 5 3 3 3 3 3 3 4 5 5 5 5 6 7 8 8 9 9 10 10 10 10 9 10 13 16 17 18 18 18 18 17 14 9 7 7 6 6 6 6 7 7 7 7 7 6 6 6 6 6 7
12 12 13 13 13 13 13 13 14 14 14 14 12 11 9 8 7 6 5 4 3 3 4 4 4 5 5 6 6 6 7 8 8 9 10 10 10 11 11 10 10 10 12 16 17 19 19 20 19 17 14 9 8 7 7 6 6 6 6 6 6 6 5 5 5 5 5 6 8
12 12 12 12 12 12 12 12 13 13 14 14 13 12 11 9 8 7 7 7 5 4 4 4 5 5 6 6 6 6 7 8 9 10 11 11 11 11 11 11 10 10 12 15 17 19 20 21 21 19 15 11 9 8 7 6 7 6 6 6 6 5 5 4 4 4 5 6 10
11 11 11 12 12 12 12 12 12 12 12 12 13 12 11 10 9 8 8 7 7 6 5 5 6 6 6 7 7 7 7 7 8 10 10 11 11 11 11 11 10 11 12 14 17 19 21 22 22 20 16 11 9 8 7 7 7 7 7 6 6 5 5 4 4 4 5 6 9
11 11 11 12 12 12 12 12 12 12 11 11 12 11 11 10 9 8 8 8 8 7 6 6 6 6 6 7 7 7 8 8 8 9 10 10 10 10 10 10 10 11 12 14 16 19 21 22 22 20 17 11 10 8 7 7 8 8 8 7 6 6 5 5 4 4 5 5 6
Wind_Direction
115 116 117 119 120 121 122 123 121 121 122 125 129 132 135 138 141 142 144 147 149 149 149 150 150 150 150 154 161 164 164 158 158 159 160 160 160 159 158 155 154 155 156 156 158 160 163 165 163 163 167 170 172 172 172 171 166 165 167 171 166 163 164 169 176 180 183 187 189
110 110 111 115 117 118 120 122 121 120 120 121 124 126 127 131 135 139 141 145 146 146 145 146 147 148 150 155 161 163 162 157 157 157 157 158 159 159 157 156 156 156 156 156 158 161 164 165 164 164 166 167 168 170 172 171 165 164 167 171 165 160 163 172 180 182 183 186 186
110 109 111 115 119 121 123 124 121 118 116 115 117 120 122 125 129 136 140 141 140 141 143 146 147 148 150 155 160 162 160 156 156 156 157 159 159 160 159 157 156 156 157 158 160 163 165 166 167 166 165 167 169 170 170 166 162 164 167 172 166 161 165 179 182 180 180 185 184
115 114 115 117 120 123 124 124 120 118 117 118 119 120 121 123 126 134 140 137 137 142 148 150 149 149 151 155 159 160 159 155 155 155 157 159 161 161 160 157 156 157 159 160 162 163 164 167 168 167 166 166 168 170 171 165 163 165 169 171 164 163 170 180 177 175 176 182 184
122 121 120 118 118 119 120 120 120 120 121 123 123 124 124 123 124 132 142 146 149 151 153 150 149 149 151 155 157 157 155 153 154 156 158 161 162 162 161 157 158 159 160 162 163 164 164 166 168 168 167 168 171 172 168 160 162 165 166 164 163 165 168 173 172 171 173 178 183
127 125 122 119 115 114 115 117 119 121 123 126 128 129 130 129 132 141 152 159 155 150 147 147 146 147 149 153 155 154 153 153 156 158 161 162 163 162 160 158 159 160 161 163 163 163 164 167 168 167 166 167 171 167 161 157 162 165 166 165 167 164 164 168 169 170 171 176 181
128 127 126 123 119 117 116 117 119 121 123 125 129 132 135 137 142 150 157 159 151 147 146 147 148 149 150 152 154 154 154 155 159 161 162 163 163 163 162 160 159 160 161 163 163 164 165 168 168 168 167 167 167 162 159 162 167 169 170 171 170 165 163 169 170 171 174 178 181
121 123 124 125 123 122 122 122 122 123 125 128 132 135 138 140 147 153 157 156 152 151 151 151 151 151 151 153 155 156 157 159 162 163 163 163 163 163 162 160 160 161 163 163 164 166 167 170 170 169 168 168 165 162 163 167 170 173 174 173 170 167 167 171 172 173 175 179 182
113 115 118 121 123 125 126 127 126 126 128 132 136 138 140 143 150 155 158 157 156 154 153 152 152 151 151 154 157 160 162 164 165 164 163 162 162 163 163 161 161 162 164 165 166 166 168 171 172 172 170 169 165 163 164 168 172 175 176 171 167 167 170 173 173 173 174 177 181
108 111 115 119 123 126 127 127 126 126 129 133 138 140 142 146 155 160 162 158 155 153 153 152 152 152 153 157 162 165 167 168 166 164 163 162 163 164 165 164 164 164 165 167 167 168 168 171 174 174 171 167 161 159 162 169 173 176 176 169 164 166 170 174 171 171 173 176 179
97 105 113 119 122 124 125 124 123 125 128 133 138 142 146 153 161 163 161 153 152 153 155 154 154 155 157 162 166 169 169 169 166 164 162 163 165 167 168 167 166 166 166 168 168 169 171 175 174 172 169 164 157 157 162 169 173 174 173 164 161 165 172 176 173 172 172 174 173
75 86 99 110 116 120 121 122 123 125 129 135 140 147 153 161 165 161 155 150 152 154 156 156 157 159 162 166 169 170 169 167 165 163 163 165 167 169 170 169 168 167 167 167 168 170 174 177 173 171 167 162 159 160 164 169 172 173 170 162 162 168 174 178 175 173 170 168 165
62 69 80 95 105 111 116 120 124 130 135 139 145 152 158 164 162 155 150 149 152 155 157 159 161 163 165 167 169 168 167 166 164 165 166 167 169 171 171 170 169 168 167 168 170 172 175 177 173 170 167 166 164 163 165 170 172 172 170 165 168 173 178 178 174 170 164 161 161
67 72 77 86 94 102 110 119 126 134 140 143 148 153 157 158 155 150 148 149 153 155 158 160 164 166 167 166 166 166 165 164 165 166 168 170 172 173 173 172 170 169 169 170 172 173 175 176 173 170 168 167 167 166 167 171 174 174 173 171 174 178 180 177 172 166 163 163 163
64 77 83 88 93 98 105 114 124 133 138 143 147 149 151 151 148 146 146 148 152 155 158 162 166 166 165 163 164 163 163 164 166 168 170 172 173 175 175 173 172 172 172 171 173 175 176 175 173 171 170 169 168 167 169 174 176 177 177 176 178 179 179 176 171 169 168 168 167
35 57 77 91 97 101 104 107 117 127 133 138 140 143 144 145 144 143 143 147 150 154 158 163 165 164 162 161 162 162 163 165 168 170 172 174 175 177 177 175 174 174 173 172 174 176 177 176 174 172 171 171 170 169 171 176 178 179 179 179 180 179 178 175 173 173 173 172 172
19 23 36 69 91 100 102 99 104 113 121 126 130 134 138 141 143 142 143 148 151 154 159 164 164 163 161 161 162 163 164 166 170 173 175 177 177 178 178 177 176 175 175 173 174 176 178 177 175 173 171 171 171 171 173 176 178 179 180 180 180 179 178 177 175 176 176 177 177
18 14 13 20 45 82 100 100 100 105 110 115 120 124 130 136 141 144 147 151 153 157 160 166 166 164 162 162 164 165 167 169 173 177 179 180 179 180 180 179 177 177 176 175 176 177 177 177 174 172 171 171 171 172 172 174 176 178 178 178 179 179 178 177 177 177 178 180 180
19 15 12 10 12 28 72 96 103 110 114 114 112 113 119 129 137 145 154 160 160 161 163 167 168 166 164 163 165 167 170 172 176 179 180 181 180 181 181 180 178 177 177 177 178 177 176 174 171 169 169 170 169 169 170 171 173 174 175 176 177 178 177 176 177 178 179 180 177
20 17 13 10 7 6 11 38 73 99 115 121 120 122 128 134 143 153 163 170 168 166 166 167 169 168 167 166 168 170 173 174 177 179 181 181 181 181 182 180 178 177 178 178 178 177 174 171 169 168 167 167 166 165 166 166 167 168 170 171 173 173 174 173 174 175 176 175 171
19 18 15 11 7 3 0 3 27 59 94 127 139 145 149 150 159 164 167 168 168 168 168 169 170 171 171 171 172 174 175 176 177 179 180 180 181 181 181 179 177 176 177 178 177 175 171 169 167 167 166 165 165 164 163 162 162 162 163 164 165 165 165 165 166 168 169 169 166
11 14 15 14 9 3 358 354 358 14 59 116 153 163 167 168 172 171 168 161 161 164 168 171 173 174 175 176 176 177 177 176 177 179 180 180 181 180 179 177 175 175 175 177 175 172 169 167 166 165 165 165 165 163 161 160 158 157 156 154 152 152 153 156 159 162 164 165 164
3 7 12 14 9 4 360 355 350 348 356 60 151 174 180 182 178 172 165 160 160 163 168 173 176 178 179 180 179 177 177 176 177 179 180 180 179 178 177 174 173 174 176 177 173 169 166 165 165 166 165 164 163 162 160 159 157 155 152 149 146 146 147 151 154 157 159 161 162
360 2 5 9 8 6 2 358 352 344 336 335 336 185 188 187 177 169 163 164 167 171 175 180 182 182 182 181 179 178 177 176 177 178 180 179 177 176 174 173 173 175 177 177 173 170 167 165 165 165 165 163 161 161 161 159 157 155 152 150 148 147 146 148 150 153 155 158 160
357 358 0 3 4 4 4 2 356 346 336 325 318 287 210 190 176 168 166 170 175 179 182 184 183 182 182 182 181 180 178 177 177 178 178 178 176 174 172 173 175 176 177 176 172 170 168 166 165 165 163 160 159 159 159 159 158 157 155 154 153 150 148 148 150 151 153 156 156
355 355 355 356 358 1 3 3 356 347 338 328 316 298 257 216 184 173 172 177 181 184 185 185 183 182 182 183 182 182 182 181 179 178 177 176 174 173 173 174 174 175 176 174 172 170 169 165 164 162 160 159 157 157 158 159 159 158 157 157 156 155 154 154 154 153 152 150 148
354 353 351 350 352 355 357 356 352 347 341 335 323 303 256 227 201 185 180 183 185 186 186 186 183 181 180 181 181 183 184 185 181 178 176 175 174 174 174 175 175 175 174 172 171 170 169 166 164 161 159 158 158 159 159 160 160 159 158 160 161 161 160 160 157 154 149 143 140
353 352 349 348 348 348 348 348 349 348 345 340 330 316 273 216 207 198 191 188 187 185 186 187 184 180 179 180 184 186 186 184 181 178 177 175 174 175 175 176 176 174 172 171 171 170 169 166 164 162 160 157 157 157 158 159 160 161 163 164 166 166 164 161 157 153 148 143 139
351 350 350 349 347 345 344 345 347 347 345 340 331 321 303 235 212 204 198 192 189 188 189 189 184 180 180 184 186 186 184 182 179 176 174 174 175 176 176 175 174 173 172 171 171 171 170 167 165 163 161 158 157 158 159 160 162 164 167 169 169 168 166 161 156 153 150 145 142
349 349 349 349 348 346 345 344 343 343 341 337 330 324 316 292 240 212 202 198 195 194 191 186 181 181 184 186 184 183 182 182 177 172 171 173 176 178 178 176 174 173 172 171 171 171 170 168 166 164 162 158 156 156 160 163 165 167 169 170 169 167 164 159 156 154 153 150 145
348 347 347 346 346 346 345 342 339 337 336 335 332 327 322 315 291 242 207 201 200 196 190 180 179 181 184 182 179 178 179 178 174 172 172 175 177 178 178 176 175 174 173 172 171 171 170 169 168 165 163 160 158 159 162 165 167 169 170 170 169 167 164 160 159 158 157 153 151
348 346 345 343 343 342 341 340 337 335 334 333 331 329 324 318 306 282 221 197 193 189 183 180 180 181 181 178 177 176 176 176 176 177 177 178 178 177 176 176 176 175 174 173 172 171 171 170 168 166 164 162 159 159 162 164 166 168 168 167 168 167 166 164 162 161 160 158 156
348 346 344 341 339 338 337 337 336 334 332 332 331 328 324 318 309 297 265 198 182 180 180 182 183 183 182 179 178 177 178 178 180 180 180 178 175 173 173 176 178 177 175 175 173 172 171 170 169 167 164 162 159 159 161 162 162 163 163 164 166 166 166 164 163 163 163 162 160
347 345 343 341 338 335 334 335 334 333 332 331 331 328 324 319 312 304 290 239 189 177 180 184 186 187 185 182 180 180 180 181 181 180 178 174 171 170 173 180 183 179 176 176 174 172 171 170 168 166 163 160 156 155 157 157 156 156 156 157 160 162 163 163 162 163 163 163 160
346 344 342 340 337 334 332 331 331 331 331 331 331 330 325 320 313 305 294 267 223 194 188 193 193 192 189 186 182 180 180 181 180 178 175 171 169 171 176 183 184 178 176 176 174 172 170 168 166 164 161 156 153 150 151 152 151 151 151 151 153 156 158 158 159 161 162 161 158
344 342 340 338 335 333 331 329 328 328 328 329 329 328 325 321 313 304 292 264 231 207 198 200 201 198 194 191 187 184 181 180 178 176 173 170 170 174 179 184 183 179 176 177 174 171 168 166 164 161 158 153 149 146 146 147 145 145 145 147 149 151 153 153 155 157 158 158 155
341 340 338 335 333 331 329 327 326 325 325 325 324 324 322 320 315 308 297 269 237 216 203 194 197 200 200 197 193 189 183 177 174 174 174 173 175 178 181 183 182 180 178 177 173 170 167 164 162 159 156 151 148 145 144 142 140 140 141 142 144 145 146 146 148 149 150 150 150
338 337 335 333 331 329 327 325 323 322 321 320 320 319 319 319 317 314 308 295 266 236 214 197 198 201 203 199 196 189 183 176 174 174 176 178 179 180 181 182 182 181 180 178 173 169 165 164 162 160 158 153 150 148 145 142 140 140 140 139 136 135 135 134 136 136 138 141 143
334 334 333 331 329 327 325 323 321 319 317 315 315 315 316 316 316 315 312 307 293 267 232 208 204 204 203 197 193 188 182 178 177 177 178 181 182 182 180 180 181 181 180 179 174 169 166 165 164 162 160 154 152 150 147 144 142 141 139 136 131 126 122 120 121 123 127 133 138
330 331 330 330 328 326 324 321 318 315 313 311 311 311 311 312 311 311 311 308 300 283 253 221 211 204 199 191 188 184 182 182 182 182 182 183 183 180 178 178 178 178 178 179 175 171 168 167 166 164 161 154 153 150 147 144 143 142 141 139 134 129 121 114 113 115 120 125 133
328 329 329 329 327 324 322 318 315 312 309 307 306 306 306 307 307 309 309 307 301 288 263 231 212 199 190 184 183 181 181 183 186 186 184 181 180 178 177 176 174 175 176 179 176 174 171 169 167 165 162 156 153 151 148 146 146 147 147 145 141 135 129 122 116 114 116 120 125